Regional Weather Roundup
Issued by NWS

Home | Current Version | Previous Version | Graphics & Text | Print | Product List | Glossary On
Versions: 1 2 3 4 5 6 7 8 9 10 11 12 13 14 15 16 17 18 19 20 21 22 23 24 25 26 27 28 29 30 31 32 33 34 35 36 37 38 39 40 41 42 43 44 45 46 47 48 49 50
177
ASUS43 KLMK 201810
RWRKY
KENTUCKY REGIONAL WEATHER ROUNDUP
NATIONAL WEATHER SERVICE LOUISVILLE KY
200 PM EDT THU JUL 20 2017

NOTE "FAIR" INDICATES FEW OR NO CLOUDS BELOW 12,000 FEET
WITH NO SIGNIFICANT WEATHER AND/OR OBSTRUCTIONS TO VISIBILITY.

KYZ001>023-026-027-061>063-070>075-201900-
WESTERN AND SOUTH CENTRAL KENTUCKY

CITY           SKY/WX    TMP DP  RH WIND       PRES   REMARKS
PADUCAH        CLOUDY    93  74  53 W6        30.07F HX 103
HENDERSON      PTSUNNY   92  74  55 NW6       30.09F HX 101
OWENSBORO      MOSUNNY   91  75  59 VRB5      30.09F HX 101
HOPKINSVILLE   CLOUDY    90  73  56 W7        30.10F HX  98
BOWLING GREEN  CLOUDY    92  73  53 MISG      30.10F HX 100
GLASGOW        MOSUNNY   92  70  48 N7        30.11F HX  97
$$

KYZ024-025-028>034-038-045-046-053-201900-
NORTH CENTRAL KENTUCKY

CITY           SKY/WX    TMP DP  RH WIND       PRES   REMARKS
LOUISVILLE/SDF CLOUDY    92  74  55 W9        30.08F HX 101
LOUISVILLE/LOU CLOUDY    91  75  59 NW6       30.09F HX 101
FORT KNOX      CLOUDY    89  75  63 W6        30.10F HX  98
$$

KYZ035>037-039>044-047>052-055>060-089>105-201900-
NORTHEAST KENTUCKY

CITY           SKY/WX    TMP DP  RH WIND       PRES   REMARKS
LEXINGTON      PTSUNNY   89  71  55 NW9       30.13F HX  95
COVINGTON      CLOUDY    86  77  74 W9        30.10F HX  97
FRANKFORT      CLOUDY    90  72  55 VRB5      30.11F HX  97
$$

KYZ054-064>069-076>088-106>120-201900-
SOUTHEAST KENTUCKY

CITY           SKY/WX    TMP DP  RH WIND       PRES   REMARKS
JACKSON        CLOUDY    87  70  56 W5        30.14F HX  92
LONDON         CLOUDY    90  67  46 NW6       30.14F HX  93
SOMERSET       CLOUDY    88  68  51 W6        30.14F HX  91
MIDDLESBORO    PTSUNNY   86  68  54 NW6       30.15F
MONTICELLO     CLOUDY    88  75  65 W5        30.15F HX  97
$$





USA.gov is the U.S. government's official web portal to all federal, state and local government web resources and services.